Regional Weather Roundup
Issued by NWS

Home | Current Version | Previous Version | Graphics & Text | Print | Product List | Glossary On
Versions: 1 2 3 4 5 6 7 8 9 10 11 12 13 14 15 16 17 18 19 20 21 22 23 24 25 26 27 28 29 30 31 32 33 34 35 36 37 38 39 40 41 42 43 44 45 46 47 48 49 50
000
ASUS43 KIND 030859
RWRIN

WEATHER ROUNDUP FOR INDIANA
NATIONAL WEATHER SERVICE INDIANAPOLIS IN
500 AM EDT MON AUG 03 2015

NOTE: "FAIR" INDICATES FEW OR NO CLOUDS BELOW 12,000 FEET WITH NO
SIGNIFICANT WEATHER AND/OR OBSTRUCTIONS TO VISIBILITY.

* - STATION DOES NOT REPORT WEATHER SUCH AS PRECIPITATION OR FOG.

+ - STATION NOT QUALITY CONTROLLED BY THE NATIONAL WEATHER SERVICE.
    USE DATA WITH CAUTION...ESPECIALLY DEWPOINT AND RELATIVE
    HUMIDITY OBSERVATIONS.

INZ001>003-010>013-019-020-031000-
NORTHWEST INDIANA

CITY           SKY/WX    TMP DP  RH WIND       PRES   REMARKS
MONTICELLO +   CLOUDY    67  67  99 S6        29.77R

$$

LMZ046-743>745-031000-
SOUTHERN LAKE MICHIGAN

STATION/POSITION TIME  TEMP    WIND        PRES    WAVE
                       AIR SEA DIR/SP/G            HT
                 (UTC) (F)     (DEG/KT/KT) (MB)    (FT)
BURNS HARBOR     0800   72     300/  6/  7 1008.1R
MICHIGAN CITY    0800   70     280/  8/  9   N/A
5NW MICH CITY    0800   71 73  320/  6/ 10   N/A     3

$$

INZ004-005-014>016-021>024-031000-
NORTH CENTRAL INDIANA

CITY           SKY/WX    TMP DP  RH WIND       PRES   REMARKS
GOSHEN         CLOUDY    63  61  93 S5        29.76S
SOUTH BEND     CLOUDY    65  63  93 W5        29.77S

$$

INZ006>009-017-018-025>027-031000-
NORTHEAST INDIANA

CITY           SKY/WX    TMP DP  RH WIND       PRES   REMARKS
ANGOLA *+      CLEAR     63  61  94 CALM      29.77R
FORT WAYNE     CLOUDY    63  62  97 S6        29.79R

$$

INZ028-029-035-036-043>045-051>053-031000-
WEST CENTRAL INDIANA

CITY           SKY/WX    TMP DP  RH WIND       PRES   REMARKS
CRAWFORDSVL +  CLOUDY    71  70  98 SW5         N/A
GREENCASTLE +  PTCLDY    72  66  83 CALM      29.82R
LAFAYETTE      CLOUDY    67  64  90 SE5       29.79S
TERRE HAUTE    CLEAR     75  71  87 S7        29.81R

$$

INZ030>032-037>040-046>048-054>057-064-065-031000-
CENTRAL INDIANA

CITY           SKY/WX    TMP DP  RH WIND       PRES   REMARKS
GREENWOOD *+   MOCLDY    73  64  73 SW6       29.83R
INDIANAPOLIS   CLOUDY    75  61  61 N22G30    29.84R THUNDER
-EAGLE CREEK     N/A     68  64  87 NE8G35    29.83R THUNDER
KOKOMO *+      CLOUDY    64  61  88 S17       29.80S
MT COMFORT *+  MOCLDY    68  61  77 N17G24    29.88R
SHELBYVILLE    MOCLDY    72  64  76 S8        29.82R

$$

INZ033-034-041-042-049-050-058-059-031000-
EAST CENTRAL INDIANA

CITY           SKY/WX    TMP DP  RH WIND       PRES   REMARKS
MUNCIE         TSTM      62  62 100 SE7       29.83F

$$

INZ060-061-067>069-081>083-085>088-031000-
SOUTHWEST INDIANA

CITY           SKY/WX    TMP DP  RH WIND       PRES   REMARKS
EVANSVILLE     CLEAR     74  67  78 SW8       29.85F
HUNTINGBURG *+ PTCLDY    72  63  73 S7        29.86R

$$

INZ062-063-066-070>080-084-089>092-031000-
SOUTH CENTRAL AND SOUTHEAST INDIANA

CITY           SKY/WX    TMP DP  RH WIND       PRES   REMARKS
BLOOMINGTON    PTCLDY    74  68  81 SW8       29.83R
MADISON *+     CLEAR     68  63  83 S3        29.88S
SEYMOUR +      CLEAR     70  63  78 CALM      29.84S

$$




USA.gov is the U.S. government's official web portal to all federal, state and local government web resources and services.